Location: Bullecourt
(50.1913°N, 2.9281°E)
Time: 06:12:41
(UTC+00:00)

Daily predictions for brighter satellites

Satellite Brightness Start Highest point End
(mag) Time Altitude Azimuth Time Altitude Azimuth Time Altitude Azimuth
CENTAUR R/B 3.5 20:37:02 10° WSW 20:43:09 57° NW 20:50:31 10° NE
CARTOSAT-1 3.8 20:41:10 10° SSE 20:45:24 58° ENE 20:49:40 10° N
SL-14 R/B 4.3 20:42:35 10° SSE 20:46:08 30° E 20:49:40 10° NNE
Terra 2.8 20:42:06 10° SE 20:46:23 34° ENE 20:50:42 10° N
SPOT 1/Viking Rocket 3.6 20:42:16 10° SSE 20:47:24 87° WSW 20:52:36 10° NNW
Cosmos 2360 Rocket 2.2 20:41:52 10° SSW 20:47:29 74° ESE 20:53:08 10° NNE
CZ-2C R/B 3.9 20:42:45 10° NNE 20:47:31 67° ESE 20:52:16 10° S
Cosmos 1674 2.6 20:44:21 10° S 20:48:03 81° E 20:51:47 10° NNE
FALCON 9 DEB 3.9 20:46:43 10° SSW 20:49:20 25° SE 20:51:58 10° E
Cosmos 1953 2.5 20:46:37 10° NNW 20:50:41 77° W 20:54:44 10° S
Meteor 2-11 Rocket 4.5 20:45:11 10° N 20:51:20 78° E 20:57:25 10° SSE
Cosmos 2322 Rocket 2.7 20:45:58 10° SW 20:51:40 68° WNW 20:57:22 10° NNE
SL-16 R/B 3.1 20:46:12 10° SW 20:51:46 56° NW 20:57:22 10° NNE
FALCON 9 DEB 3.7 20:49:06 10° SSW 20:51:52 30° SE 20:54:39 10° E
SPOT 5 3.3 20:48:54 10° SE 20:53:48 54° ENE 20:58:30 10° N
Cosmos 1802 Rocket 4.1 20:48:19 10° N 20:54:37 75° E 21:00:58 10° SSE
USA 245 4.3 20:49:26 10° SSE 20:54:37 86° WSW 21:00:43 10° NNW
Cosmos 1975 Rocket 3.2 20:50:55 10° SSW 20:55:18 79° W 20:59:45 10° N
Cosmos 1459 Rocket 4.0 20:49:58 10° N 20:56:04 90° NW 21:02:09 10° S
Cosmos 1300 3.2 20:59:02 10° N 21:02:43 45° ENE 21:06:19 10° SSE
Lacrosse 5 4.3 21:02:44 10° WSW 21:03:59 11° WSW 21:05:15 10° SW
Resurs 01 Rocket 3.2 21:02:39 10° SSW 21:06:36 32° W 21:10:35 10° NNW
Cosmos 1340 2.8 21:08:15 10° S 21:11:56 56° E 21:15:39 10° NNE
USA 267 4.1 21:06:12 10° E 21:12:28 51° N 21:18:46 10° WNW
Cosmos 2322 3.8 21:09:38 10° S 21:15:10 59° ESE 21:20:45 10° NE
Cosmos 2278 Rocket 3.0 21:09:58 10° NNW 21:15:24 45° NE 21:20:49 10° SE
Cosmos 1844 Rocket 3.6 21:11:02 10° NW 21:16:23 43° WSW 21:21:42 10° S
COSMOS 2428 3.1 21:11:33 10° S 21:16:57 44° ESE 21:22:22 10° NE
Cosmos 389 Rocket 3.7 21:18:41 10° N 21:21:43 28° ENE 21:24:17 13° SE
Cosmos 1867 3.7 21:18:20 10° NW 21:23:52 79° NE 21:28:54 12° SE
SL-23 DEB 4.4 21:23:32 10° W 21:27:23 80° N 21:33:54 10° E
Cosmos 968 Rocket 3.5 21:23:51 10° NNW 21:29:00 82° ENE 21:33:29 14° SSE
Cosmos 1486 Rocket 4.1 21:29:15 10° NNW 21:34:29 71° ENE 21:38:52 15° SSE
Cosmos 1626 2.9 21:31:20 10° SSW 21:34:54 50° WNW 21:38:33 10° N
SJ 16-02 3.9 21:33:55 10° NNE 21:35:32 12° NE 21:37:08 10° ENE
Cosmos 2061 Rocket 4.3 21:29:51 10° NNW 21:36:17 74° W 21:42:38 10° S
FALCON 9 DEB 3.5 21:33:32 10° W 21:36:57 66° NNW 21:40:21 10° ENE
Cosmos 2123 Rocket 4.1 21:31:23 10° S 21:37:41 88° W 21:44:04 10° N
Meteor 2-10 Rocket 3.6 21:33:29 10° N 21:38:33 62° ENE 21:42:36 15° SSE
Cosmos 1606 Rocket 4.2 21:34:54 10° N 21:39:12 44° ENE 21:42:32 16° SE
Cosmos 2233 Rocket 4.0 21:33:56 10° N 21:40:07 78° E 21:45:35 14° SSE
Cosmos 1943 Rocket 4.2 21:36:29 10° N 21:40:34 20° NE 21:44:38 10° E
Uosat 12 SS-18 rocket 4.4 21:37:05 10° SSW 21:41:21 52° ESE 21:46:18 10° NE
ARIANE 5 R/B 3.6 21:38:58 10° S 21:43:12 42° W 21:47:30 10° NNW
Cosmos 1346 Rocket 3.2 21:47:04 17° SSE 21:49:57 47° E 21:53:51 10° NNE
Cosmos 405 4.1 21:47:20 10° NNW 21:50:32 36° W 21:53:33 11° SSW
ATLAS CENTAUR R/B 2.9 21:47:21 10° WNW 21:51:06 28° WSW 21:54:30 13° S
Cosmos 1980 4.4 21:51:14 15° SSE 21:55:20 36° ESE 22:00:29 10° NE
BREEZE-M DEB (TANK) 4.2 21:45:00 10° SW 21:55:26 33° SSE 21:59:04 10° E
ATLAS 3B R/B 2.7 21:50:39 10° SW 21:57:14 87° NW 22:04:06 10° NE
SL-4 R/B 2.6 21:55:41 10° SSW 21:59:19 30° SSE 22:02:44 10° E
FALCON 9 DEB 2.7 21:58:04 10° WSW 22:01:12 77° SSE 22:04:20 10° ENE
ALOS 2 4.3 21:57:54 10° ESE 22:01:16 23° ENE 22:04:41 10° N
Cosmos 2219 Rocket 2.5 22:01:18 10° SW 22:06:59 73° WNW 22:12:41 10° NNE
Meteor 2-5 Rocket 4.0 22:01:59 10° SSW 22:07:30 70° WNW 22:13:10 10° N
Cosmos 1607 4.0 22:01:20 10° NW 22:07:49 88° NE 22:12:53 17° SE
Lacrosse 5 rocket 2.1 22:05:06 10° W 22:08:38 47° NNW 22:12:07 10° NE
Cosmos 2333 Rocket 2.7 22:02:58 10° SW 22:08:41 63° WNW 22:14:23 10° NNE
ERS-1 Rocket 4.1 22:04:13 10° SSW 22:08:51 36° W 22:13:32 10° NNW
Cosmos 2228 3.1 22:06:35 10° NNW 22:11:00 77° W 22:14:06 19° S
Iridium 2 3.9 22:12:19 23° SSE 22:14:24 52° E 22:18:04 10° NNE
FALCON 9 DEB 3.0 22:13:39 10° WSW 22:16:45 74° NNW 22:19:51 10° ENE
USA 215 3.8 22:13:50 10° ENE 22:19:47 36° SE 22:25:28 11° SSW
Terra 3.0 22:20:12 12° SSW 22:24:07 35° W 22:28:30 10° NNW
FALCON 9 DEB 3.0 22:21:41 10° WSW 22:24:47 77° NNW 22:27:56 10° ENE
SL-16 R/B 3.6 22:23:55 17° SE 22:26:21 22° ESE 22:30:38 10° NE
FALCON 9 DEB 3.2 22:24:14 10° W 22:27:21 68° NNW 22:30:27 10° ENE
Cosmos 1455 2.1 22:24:05 10° N 22:27:56 85° ENE 22:29:59 26° SSE
Cosmos 2237 Rocket 2.3 22:23:45 16° S 22:28:06 58° ESE 22:33:37 10° NE
Cosmos 1464 Rocket 4.1 22:23:32 10° N 22:29:55 71° ENE 22:34:26 20° SSE
Cosmos 1184 Rocket 3.1 22:29:49 30° SSE 22:31:02 48° E 22:34:11 10° NNE
Cosmos 2360 Rocket 4.4 22:27:20 10° W 22:32:04 27° NW 22:36:49 10° NNE
H-2A R/B 4.3 22:28:28 10° N 22:32:25 48° WNW 22:36:20 10° SW
Cosmos 1503 Rocket 4.2 22:29:09 10° NNW 22:34:30 67° WSW 22:37:58 22° S
Cosmos 2369 Rocket 4.0 22:30:05 10° NNW 22:34:52 26° NE 22:39:38 10° E
Meteor 1-24 Rocket 4.5 22:34:12 10° SW 22:39:23 48° WNW 22:44:46 10° N
GEOS 3 Rocket 3.7 22:38:08 19° SE 22:42:09 88° SW 22:47:31 10° NW
ATLAS CENTAUR R/B 3.8 22:40:44 20° S 22:44:12 45° ESE 22:55:40 10° NE
USA 267 3.4 22:48:38 10° ESE 22:55:11 81° NNE 23:01:45 10° WNW
Cosmos 389 Rocket 4.4 22:53:34 10° NW 22:56:13 21° W 22:58:04 14° SW
Okean 1-7 Rocket 3.6 22:54:15 27° S 22:56:39 72° E 23:01:06 10° NNE
Cosmos 1812 Rocket 4.4 22:52:48 10° N 22:56:55 40° ENE 22:59:21 21° SE
BREEZE-M DEB (TANK) 2.7 22:55:59 10° W 22:59:13 83° S 23:08:20 10° E
Cosmos 2278 Rocket 3.1 22:54:14 10° NW 22:59:27 38° WSW 23:02:45 20° SSW
COSMOS 2428 4.0 22:55:55 10° WSW 23:01:18 40° NW 23:06:43 10° NNE
Cosmos 2058 Rocket 3.4 22:57:38 10° NNW 23:02:01 58° W 23:04:24 25° SSW
Cosmos 2297 3.9 22:56:30 10° NNW 23:02:10 70° ENE 23:06:11 20° SE
Cosmos 2034 Rocket 4.0 22:59:50 10° N 23:06:05 89° E 23:10:01 24° S
NOSS 0 Rocket 4.3 23:03:00 10° SW 23:09:11 66° NW 23:15:25 10° NNE
FALCON 9 DEB 3.9 23:10:44 10° WNW 23:14:06 53° N 23:17:27 10° E
SJ 16-02 1.5 23:10:39 10° NNW 23:15:02 66° ENE 23:17:27 25° SE
Meteor 1-21 Rocket 4.3 23:14:30 21° SSW 23:18:24 76° WNW 23:24:12 10° N
Cosmos 1777 Rocket 4.2 23:14:48 10° NNW 23:20:03 64° WSW 23:22:56 27° S
GP-B 3.6 23:19:31 10° N 23:23:52 50° E 23:26:01 27° SSE
Cosmos 1943 Rocket 2.2 23:19:40 10° NNW 23:25:13 81° ENE 23:28:53 22° SSE
Meteor 1-4 Rocket 2.5 23:22:00 10° NNW 23:25:29 65° W 23:26:36 38° SSW
Cosmos 1892 4.2 23:30:16 20° SE 23:31:45 26° E 23:35:00 10° NNE
MTI 3.7 23:28:44 10° NNE 23:31:47 65° ESE 23:32:27 47° SSE
Cosmos 1441 Rocket 3.9 23:29:44 23° SW 23:31:49 47° WNW 23:35:31 10° N
Cosmos 1869 4.4 23:32:03 10° N 23:35:55 38° ENE 23:38:08 21° SE
FALCON 9 DEB 3.9 23:33:59 10° W 23:37:03 48° N 23:40:07 10° ENE
ALOS 2 3.1 23:35:17 28° SSW 23:37:18 49° W 23:41:36 10° NNW
Tsikada Rocket 3.9 23:34:13 24° S 23:38:08 87° E 23:44:20 10° N
SL-4 R/B 1.7 23:34:40 10° WSW 23:38:40 89° SSE 23:42:21 10° ENE
Lacrosse 4 Rocket 4.1 23:36:19 10° N 23:39:10 18° NE 23:41:59 10° ENE
USA 229 DEB 4.1 23:38:46 24° S 23:42:02 41° ESE 23:48:20 10° NE
USA 229 4.1 23:38:53 24° S 23:42:09 41° ESE 23:48:26 10° NE
Lacrosse 5 rocket 3.3 23:45:11 10° WNW 23:48:19 27° N 23:51:25 10° ENE
ATLAS 3B R/B 4.3 23:42:47 10° W 23:48:48 34° NNW 23:55:03 10° NE
NOSS 3-1 (C) 3.3 23:46:44 24° SSW 23:50:00 64° SE 23:56:18 10° NE
Cosmos 1626 Rocket 4.1 23:49:24 24° SW 23:51:53 53° WNW 23:56:14 10° N
FALCON 9 DEB 3.9 23:49:34 10° WNW 23:52:35 47° N 23:55:36 10° E
Elektron 1 4.4 23:50:53 10° WNW 23:53:40 35° SW 23:53:44 35° SW
SL-16 R/B 4.4 23:49:15 10° ESE 23:54:09 25° NE 23:59:03 10° N
Cosmos 1937 Rocket 4.5 23:49:02 10° NNW 23:54:09 45° ENE 23:59:01 11° SE
Cosmos 1408 3.6 23:53:09 26° SE 23:54:28 36° E 23:57:53 10° NNE
Cosmos 1825 3.9 23:54:28 18° SE 23:56:03 23° E 23:59:04 10° NE
